When you browse on this site, cookies collect data to enhance your experience and personalize the content and advertising you see.
Visit our Privacy Policy to learn more. By continuing to use the site, you agree to this use of cookies and data.
  • In Hungary
  • List of Countries
  • For 7 days
  • Water Temperature
  • Weather Map
  • News
  • Weather Widgets
  • user-avatar
    Login

    Hourly Weather Volgo-Don

    Today, 16 February, Sunday

    Time Temperature Precipitation Wind Pressure Humidity
    00:00 -2°C° 0 mm 4 mps 764 mmHg 83%
    01:00 -1°C° 0 mm 3 mps 764 mmHg 83%
    02:00 -1°C° 0 mm 3 mps 764 mmHg 83%
    03:00 -2°C° 0 mm 3 mps 765 mmHg 84%
    04:00 -2°C° 0 mm 3 mps 765 mmHg 84%
    05:00 -2°C° 0 mm 3 mps 765 mmHg 84%
    06:00 -2°C° 0 mm 3 mps 766 mmHg 83%
    07:00 -2°C° 0 mm 4 mps 766 mmHg 80%
    08:00 -2°C° 0 mm 4 mps 767 mmHg 77%
    09:00 -1°C° 0 mm 5 mps 767 mmHg 71%
    10:00 0°C° 0 mm 5 mps 767 mmHg 66%
    11:00 +1°C° 0 mm 5 mps 767 mmHg 60%
    12:00 +2°C° 0 mm 5 mps 767 mmHg 55%
    13:00 +3°C° 0 mm 5 mps 767 mmHg 54%
    14:00 +3°C° 0 mm 5 mps 767 mmHg 53%
    15:00 +3°C° 0 mm 5 mps 767 mmHg 51%
    16:00 +3°C° 0 mm 4 mps 767 mmHg 57%
    17:00 +1°C° 0 mm 4 mps 767 mmHg 62%
    18:00 +1°C° 0 mm 3 mps 768 mmHg 67%
    19:00 +1°C° 0 mm 3 mps 768 mmHg 70%
    20:00 0°C° 0 mm 3 mps 768 mmHg 73%
    21:00 0°C° 0 mm 3 mps 768 mmHg 75%
    22:00 -1°C° 0 mm 3 mps 768 mmHg 76%
    23:00 -1°C° 0 mm 3 mps 768 mmHg 78%

    Tomorrow, 17 February, Monday

    Time Temperature Precipitation Wind Pressure Humidity
    00:00 -1°C° 0 mm 3 mps 768 mmHg 79%
    01:00 -1°C° 0 mm 3 mps 768 mmHg 79%
    02:00 -1°C° 0 mm 3 mps 768 mmHg 79%
    03:00 -2°C° 0 mm 4 mps 768 mmHg 79%
    04:00 -2°C° 0 mm 4 mps 768 mmHg 79%
    05:00 -3°C° 0 mm 4 mps 768 mmHg 80%
    06:00 -3°C° 0 mm 4 mps 768 mmHg 80%
    07:00 -2°C° 0 mm 4 mps 768 mmHg 77%
    08:00 -2°C° 0 mm 5 mps 768 mmHg 74%
    09:00 -2°C° 0 mm 6 mps 768 mmHg 71%
    10:00 +1°C° 0 mm 6 mps 768 mmHg 68%
    11:00 +2°C° 0 mm 6 mps 767 mmHg 64%
    12:00 +3°C° 0 mm 6 mps 767 mmHg 60%
    13:00 +4°C° 0 mm 6 mps 767 mmHg 60%
    14:00 +4°C° 0 mm 6 mps 767 mmHg 60%
    15:00 +6°C° 0 mm 5 mps 766 mmHg 60%
    16:00 +3°C° 0 mm 5 mps 766 mmHg 65%
    17:00 +2°C° 0 mm 5 mps 766 mmHg 71%
    18:00 +1°C° 0 mm 4 mps 765 mmHg 76%
    19:00 +1°C° 0 mm 4 mps 766 mmHg 77%
    20:00 0°C° 0 mm 4 mps 766 mmHg 78%
    21:00 0°C° 0 mm 4 mps 766 mmHg 78%
    22:00 -1°C° 0 mm 4 mps 766 mmHg 82%
    23:00 -1°C° 0 mm 4 mps 765 mmHg 85%

    Day after tomorrow, 18 February, Tuesday

    Time Temperature Precipitation Wind Pressure Humidity
    00:00 -1°C° 0 mm 4 mps 765 mmHg 89%
    01:00 -1°C° 0 mm 4 mps 764 mmHg 90%
    02:00 -2°C° 0 mm 4 mps 764 mmHg 91%
    03:00 -1°C° 0 mm 3 mps 764 mmHg 92%
    04:00 -1°C° 0 mm 3 mps 764 mmHg 92%
    05:00 -1°C° 0 mm 3 mps 764 mmHg 92%
    06:00 -1°C° 0 mm 3 mps 763 mmHg 92%
    07:00 -1°C° 0 mm 4 mps 763 mmHg 89%
    08:00 -1°C° 0 mm 4 mps 763 mmHg 86%
    09:00 0°C° 0 mm 4 mps 763 mmHg 83%
    10:00 +1°C° 0 mm 4 mps 763 mmHg 77%
    11:00 +3°C° 0 mm 4 mps 763 mmHg 71%
    12:00 +5°C° 0 mm 4 mps 762 mmHg 66%
    13:00 +7°C° 0 mm 3 mps 762 mmHg 62%
    14:00 +7°C° 0 mm 3 mps 761 mmHg 58%
    15:00 +8°C° 0 mm 2 mps 761 mmHg 53%
    16:00 +7°C° 0 mm 2 mps 760 mmHg 58%
    17:00 +6°C° 0 mm 2 mps 760 mmHg 62%
    18:00 +6°C° 0 mm 1 mps 760 mmHg 66%
    19:00 +6°C° 0 mm 1 mps 760 mmHg 69%
    20:00 +5°C° 0 mm 1 mps 760 mmHg 71%
    21:00 +4°C° 0 mm 1 mps 760 mmHg 73%
    22:00 +4°C° 0 mm 1 mps 759 mmHg 74%
    23:00 +4°C° 0 mm 1 mps 759 mmHg 75%

    19 February, Wednesday

    Time Temperature Precipitation Wind Pressure Humidity
    00:00 +3°C° 0 mm 1 mps 758 mmHg 76%
    01:00 +3°C° 0 mm 1 mps 758 mmHg 77%
    02:00 +3°C° 0 mm 1 mps 758 mmHg 78%
    03:00 +3°C° 0 mm 1 mps 758 mmHg 79%
    04:00 +3°C° 0 mm 1 mps 758 mmHg 79%
    05:00 +2°C° 0 mm 1 mps 758 mmHg 79%
    06:00 +2°C° 0 mm 1 mps 757 mmHg 79%
    07:00 +3°C° 0 mm 1 mps 758 mmHg 76%
    08:00 +4°C° 0 mm 1 mps 758 mmHg 73%
    09:00 +5°C° 0 mm 1 mps 758 mmHg 70%
    10:00 +6°C° 0 mm 1 mps 758 mmHg 65%
    11:00 +7°C° 0 mm 2 mps 757 mmHg 59%
    12:00 +8°C° 0 mm 2 mps 757 mmHg 54%
    13:00 +9°C° 0 mm 2 mps 757 mmHg 52%
    14:00 +10°C° 0 mm 2 mps 756 mmHg 50%
    15:00 +10°C° 0 mm 2 mps 756 mmHg 48%
    16:00 +9°C° 0 mm 2 mps 756 mmHg 53%
    17:00 +9°C° 0 mm 1 mps 756 mmHg 58%
    18:00 +8°C° 0 mm 1 mps 755 mmHg 63%
    19:00 +7°C° 0 mm 1 mps 756 mmHg 66%
    20:00 +7°C° 0 mm 1 mps 756 mmHg 68%
    21:00 +6°C° 0 mm 1 mps 756 mmHg 71%
    22:00 +6°C° 0 mm 1 mps 756 mmHg 74%
    23:00 +4°C° 0 mm 2 mps 755 mmHg 78%

    20 February, Thursday

    Time Temperature Precipitation Wind Pressure Humidity
    00:00 +4°C° 0 mm 2 mps 755 mmHg 81%
    01:00 +3°C° 0 mm 2 mps 755 mmHg 82%
    02:00 +3°C° 0 mm 2 mps 755 mmHg 84%
    03:00 +3°C° 0 mm 2 mps 755 mmHg 85%
    04:00 +2°C° 0 mm 2 mps 755 mmHg 86%
    05:00 +2°C° 0 mm 2 mps 755 mmHg 87%
    06:00 +2°C° 0 mm 2 mps 755 mmHg 87%
    07:00 +2°C° 0 mm 3 mps 755 mmHg 85%
    08:00 +2°C° 0 mm 3 mps 755 mmHg 83%
    09:00 +2°C° 0 mm 3 mps 755 mmHg 80%
    10:00 +4°C° 0 mm 3 mps 755 mmHg 75%
    11:00 +5°C° 0 mm 4 mps 754 mmHg 70%
    12:00 +6°C° 0 mm 4 mps 754 mmHg 65%
    13:00 +7°C° 0 mm 4 mps 754 mmHg 63%
    14:00 +7°C° 0 mm 4 mps 753 mmHg 61%
    15:00 +8°C° 0 mm 4 mps 753 mmHg 60%
    16:00 +7°C° 0 mm 4 mps 753 mmHg 64%
    17:00 +6°C° 0 mm 4 mps 753 mmHg 68%
    18:00 +6°C° 0 mm 5 mps 753 mmHg 72%
    19:00 +5°C° 0 mm 5 mps 753 mmHg 75%
    20:00 +3°C° 0 mm 5 mps 753 mmHg 78%
    21:00 +3°C° 0 mm 5 mps 753 mmHg 82%
    22:00 +2°C° 0 mm 5 mps 753 mmHg 83%
    23:00 +2°C° 0 mm 5 mps 753 mmHg 85%

    21 February, Friday

    Time Temperature Precipitation Wind Pressure Humidity
    00:00 +1°C° 0 mm 5 mps 753 mmHg 86%
    01:00 +1°C° 0 mm 5 mps 753 mmHg 87%
    02:00 +1°C° 0 mm 5 mps 753 mmHg 88%
    03:00 0°C° 0 mm 5 mps 753 mmHg 89%
    04:00 0°C° 0 mm 5 mps 753 mmHg 89%
    05:00 0°C° 0 mm 5 mps 753 mmHg 90%
    06:00 0°C° 0 mm 5 mps 753 mmHg 91%
    07:00 0°C° 0 mm 5 mps 753 mmHg 90%
    08:00 0°C° 0 mm 5 mps 753 mmHg 89%
    09:00 0°C° 0 mm 5 mps 753 mmHg 88%
    16:00 +6°C° 0 mm 4 mps 752 mmHg 69%
    17:00 +5°C° 0 mm 4 mps 753 mmHg 72%
    18:00 +5°C° 0 mm 4 mps 753 mmHg 74%
    19:00 +5°C° 0 mm 4 mps 753 mmHg 76%
    20:00 +4°C° 0 mm 4 mps 753 mmHg 77%
    21:00 +4°C° 0 mm 4 mps 753 mmHg 78%
    22:00 +3°C° 0 mm 3 mps 753 mmHg 79%
    23:00 +3°C° 0 mm 3 mps 753 mmHg 81%
    Show more